Weather History for KMDD - June, 2013

Change the Weather History Date:

Sunday, June 16, 2013

  Actual Average (KMAF) Record (KMAF)
Temperature  
Mean Temperature 84 °F 81 °F  
Max Temperature 96 °F 94 °F 109 °F (2011)
Min Temperature 71 °F 68 °F 48 °F (1981)
Cooling Degree Days 18 16  
Month to date cooling degree days 231  
Year to date cooling degree days 620  
Since 1 June cooling degree days 231  
Growing Degree Days 34 (Base 50)    
Moisture  
Dew Point 65 °F    
Average Humidity 58    
Maximum Humidity 87    
Minimum Humidity 29    
Precipitation  
Precipitation 0.00 in 0.06 in 0.72 in (1961)
Month to date precipitation 1.00  
Year to date precipitation 5.26  
Sea Level Pressure  
Sea Level Pressure 30.01 in    
Wind  
Wind Speed 9 mph (SSE)    
Max Wind Speed 15 mph    
Max Gust Speed 20 mph    
Visibility 10 miles    
Events      
T = Trace of Precipitation, MM = Missing Value Source: NWS Daily Summary

Daily Weather History Graph

Daily Weather History Graph

Search for Another Location

Airport or City:

Trip Planner

Search our weather history database for the weather conditions in past years. The results will help you decide how hot, cold, wet, or windy it might be!

Date:

Astronomy

Jun. 16, 2013 Rise Set
Actual Time 6:41 AM CDT 8:56 PM CDT
Civil Twilight 6:13 AM CDT 9:24 PM CDT
Nautical Twilight 5:39 AM CDT 9:59 PM CDT
Astronomical Twilight 5:01 AM CDT 10:36 PM CDT
Moon 1:55 PM CDT (6/16) 1:25 AM CDT (6/16)
Length of Visible Light 15h 11m
Length of Day
14h 14m
Waxing Crescent, 50% of the Moon is Illuminated
Jun 16
Waxing Crescent
Jun 16
First Quarter
Jun 23
Full
Jun 29
Last Quarter
Jul 8
New

Hourly Weather History & Observations

Time (CDT) Temp. Heat Index Dew Point Humidity Pressure Visibility Wind Dir Wind Speed Gust Speed Precip Events Conditions
12:15 AM 77.9 °F - 67.1 °F 69% 30.01 in 10.0 mi SSE 11.5 mph - N/A   Clear
12:35 AM 77.4 °F - 67.3 °F 71% 30.02 in 10.0 mi SSE 9.2 mph - N/A   Clear
12:55 AM 76.6 °F - 67.5 °F 73% 30.01 in 10.0 mi SSE 10.4 mph - N/A   Clear
1:15 AM 76.1 °F - 67.5 °F 74% 30.01 in 10.0 mi South 9.2 mph - N/A   Clear
1:35 AM 75.6 °F - 67.5 °F 76% 30.01 in 10.0 mi South 8.1 mph - N/A   Clear
1:55 AM 75.2 °F - 67.5 °F 77% 30.01 in 10.0 mi South 6.9 mph - N/A   Clear
2:15 AM 74.8 °F - 67.5 °F 78% 30.01 in 10.0 mi South 8.1 mph - N/A   Clear
2:35 AM 74.7 °F - 67.6 °F 79% 30.01 in 10.0 mi South 6.9 mph - N/A   Clear
2:55 AM 74.3 °F - 67.6 °F 80% 30.00 in 10.0 mi South 8.1 mph - N/A   Clear
3:15 AM 73.9 °F - 67.8 °F 81% 30.00 in 10.0 mi South 6.9 mph - N/A   Clear
3:35 AM 73.8 °F - 68.0 °F 82% 30.00 in 10.0 mi South 6.9 mph - N/A   Clear
3:55 AM 73.4 °F - 67.8 °F 83% 30.00 in 10.0 mi SSE 4.6 mph - N/A   Clear
4:15 AM 73.0 °F - 67.8 °F 84% 30.00 in 10.0 mi South 5.8 mph - N/A   Clear
4:35 AM 72.9 °F - 68.0 °F 85% 30.00 in 10.0 mi SSE 6.9 mph - N/A   Clear
4:55 AM 72.9 °F - 68.0 °F 85% 30.01 in 10.0 mi SSE 6.9 mph - N/A   Clear
5:15 AM 72.5 °F - 67.6 °F 85% 30.01 in 10.0 mi SSE 6.9 mph - N/A   Clear
5:35 AM 72.1 °F - 67.6 °F 86% 30.01 in 10.0 mi SE 5.8 mph - N/A   Clear
5:55 AM 72.0 °F - 67.6 °F 86% 30.01 in 10.0 mi SE 4.6 mph - N/A   Clear
6:15 AM 71.6 °F - 67.5 °F 87% 30.02 in 10.0 mi SSE 5.8 mph - N/A   Clear
6:35 AM 71.6 °F - 67.5 °F 87% 30.02 in 10.0 mi SSE 6.9 mph - N/A   Clear
6:55 AM 71.4 °F - 67.3 °F 87% 30.03 in 7.0 mi South 4.6 mph - N/A   Clear
7:15 AM 71.8 °F - 67.5 °F 86% 30.06 in 7.0 mi West 3.5 mph - N/A   Clear
7:35 AM 72.5 °F - 67.6 °F 85% 30.06 in 10.0 mi Calm Calm - N/A   Clear
7:55 AM 73.4 °F - 67.5 °F 82% 30.06 in 10.0 mi South 5.8 mph - N/A   Clear
8:15 AM 74.1 °F - 67.6 °F 80% 30.07 in 10.0 mi SSE 5.8 mph - N/A   Clear
8:35 AM 73.6 °F - 67.6 °F 82% 30.08 in 10.0 mi SSE 8.1 mph - N/A   Mostly Cloudy
8:55 AM 73.6 °F - 67.6 °F 82% 30.07 in 7.0 mi SSE 8.1 mph - N/A   Overcast
9:15 AM 75.2 °F - 67.8 °F 78% 30.07 in 10.0 mi South 9.2 mph - N/A   Overcast
9:35 AM 76.6 °F - 68.0 °F 75% 30.07 in 10.0 mi SSE 10.4 mph - N/A   Mostly Cloudy
9:55 AM 79.0 °F - 68.2 °F 69% 30.06 in 7.0 mi SSE 15.0 mph - N/A   Scattered Clouds
10:15 AM 80.6 °F 83.2 °F 68.0 °F 65% 30.07 in 10.0 mi SSE 9.2 mph 17.3 mph N/A   Clear
10:35 AM 81.5 °F 84.2 °F 67.8 °F 63% 30.06 in 10.0 mi SSE 11.5 mph 16.1 mph N/A   Clear
10:55 AM 83.5 °F 86.2 °F 67.5 °F 58% 30.06 in 7.0 mi SSE 11.5 mph - N/A   Clear
11:15 AM 85.1 °F 87.7 °F 66.9 °F 54% 30.04 in 10.0 mi SSE 10.4 mph - N/A   Clear
11:35 AM 85.8 °F 88.2 °F 66.4 °F 52% 30.05 in 10.0 mi SE 9.2 mph - N/A   Clear
11:55 AM 87.8 °F 90.0 °F 65.7 °F 48% 30.05 in 10.0 mi SE 10.4 mph - N/A   Clear
12:15 PM 88.2 °F 89.3 °F 64.0 °F 44% 30.05 in 10.0 mi SE 9.2 mph - N/A   Clear
12:35 PM 89.6 °F 90.8 °F 63.9 °F 42% 30.04 in 10.0 mi South 9.2 mph - N/A   Clear
12:55 PM 90.1 °F 90.6 °F 62.2 °F 39% 30.04 in 10.0 mi SE 10.4 mph 17.3 mph N/A   Clear
1:15 PM 91.2 °F 91.1 °F 61.2 °F 36% 30.03 in 10.0 mi South 8.1 mph - N/A   Clear
1:35 PM 91.9 °F 91.8 °F 60.4 °F 35% 30.03 in 10.0 mi SE 11.5 mph - N/A   Clear
1:55 PM 92.8 °F 92.4 °F 60.1 °F 33% 30.02 in 10.0 mi SE 11.5 mph - N/A   Clear
2:15 PM 94.1 °F 93.9 °F 59.7 °F 32% 30.02 in 10.0 mi ESE 10.4 mph 16.1 mph N/A   Clear
2:35 PM 94.1 °F 94.2 °F 60.6 °F 33% 30.01 in 10.0 mi SSE 11.5 mph - N/A   Clear
2:55 PM 94.6 °F 94.7 °F 60.4 °F 32% 30.01 in 10.0 mi SE 4.6 mph 17.3 mph N/A   Clear
3:15 PM 95.2 °F 95.1 °F 60.3 °F 31% 30.00 in 10.0 mi SE 11.5 mph 17.3 mph N/A   Clear
3:35 PM 95.7 °F 95.1 °F 59.2 °F 29% 30.00 in 10.0 mi ESE 10.4 mph - N/A   Clear
3:55 PM 95.4 °F 95.3 °F 60.3 °F 31% 29.99 in 10.0 mi SE 13.8 mph 17.3 mph N/A   Clear
4:15 PM 96.1 °F 95.6 °F 59.0 °F 29% 29.99 in 10.0 mi ESE 10.4 mph - N/A   Clear
4:35 PM 96.1 °F 95.6 °F 59.0 °F 29% 29.98 in 10.0 mi SSE 12.7 mph - N/A   Clear
4:55 PM 95.9 °F 95.7 °F 59.9 °F 30% 29.97 in 10.0 mi SSE 9.2 mph 18.4 mph N/A   Clear
5:15 PM 95.4 °F 94.9 °F 59.4 °F 30% 29.97 in 10.0 mi SE 11.5 mph - N/A   Clear
5:35 PM 95.0 °F 94.8 °F 59.5 °F 31% 29.96 in 10.0 mi SE 13.8 mph 19.6 mph N/A   Clear
5:55 PM 95.0 °F 94.8 °F 59.9 °F 31% 29.96 in 10.0 mi SSE 13.8 mph - N/A   Clear
6:15 PM 94.6 °F 94.3 °F 59.7 °F 31% 29.95 in 10.0 mi SE 10.4 mph 13.8 mph N/A   Clear
6:35 PM 93.0 °F 93.0 °F 60.4 °F 34% 29.96 in 10.0 mi SSE 15.0 mph - N/A   Clear
6:55 PM 91.4 °F 91.7 °F 61.7 °F 37% 29.97 in 10.0 mi South 13.8 mph - N/A   Clear
7:15 PM 90.5 °F 90.4 °F 61.2 °F 37% 29.96 in 10.0 mi SSE 11.5 mph 16.1 mph N/A   Clear
7:35 PM 89.8 °F 90.0 °F 61.7 °F 39% 29.96 in 10.0 mi SSE 12.7 mph 17.3 mph N/A   Clear
7:55 PM 88.9 °F 89.7 °F 63.1 °F 42% 29.97 in 10.0 mi South 12.7 mph - N/A   Clear
8:15 PM 88.2 °F 88.7 °F 62.6 °F 42% 29.98 in 10.0 mi South 15.0 mph 18.4 mph N/A   Clear
8:35 PM 87.8 °F 88.5 °F 62.6 °F 43% 29.97 in 10.0 mi South 12.7 mph 18.4 mph N/A   Clear
8:55 PM 87.4 °F 88.5 °F 63.5 °F 45% 29.98 in 10.0 mi South 11.5 mph 15.0 mph N/A   Clear
9:15 PM 86.7 °F 88.1 °F 64.4 °F 47% 29.99 in 10.0 mi SSW 10.4 mph - N/A   Clear
9:35 PM 86.0 °F 87.6 °F 64.6 °F 49% 29.97 in 10.0 mi South 10.4 mph 18.4 mph N/A   Clear
9:55 PM 85.3 °F 86.6 °F 64.4 °F 49% 29.97 in 10.0 mi South 10.4 mph 18.4 mph N/A   Clear
10:15 PM 84.6 °F 86.6 °F 65.8 °F 53% 29.97 in 10.0 mi South 12.7 mph 19.6 mph N/A   Clear
10:35 PM 83.8 °F 86.0 °F 66.2 °F 55% 29.96 in 10.0 mi SSE 10.4 mph 19.6 mph N/A   Clear
10:55 PM 83.3 °F 85.7 °F 66.6 °F 57% 29.97 in 10.0 mi South 12.7 mph 18.4 mph N/A   Clear
11:15 PM 82.6 °F 85.1 °F 67.1 °F 59% 29.98 in 10.0 mi South 10.4 mph 16.1 mph N/A   Clear
11:35 PM 81.9 °F 84.6 °F 67.5 °F 62% 29.99 in 10.0 mi South 10.4 mph - N/A   Clear
11:55 PM 81.0 °F 83.8 °F 68.0 °F 65% 29.99 in 10.0 mi South 10.4 mph - N/A   Clear